Time,TemperatureF,DewpointF,PressureIn,WindDirection,WindDirectionDegrees,WindSpeedMPH,WindSpeedGustMPH,Humidity,HourlyPrecipIn,Conditions,Clouds,dailyrainin,SoftwareType,DateUTC
2013-05-10 00:01:00,55.7,56.0,29.49,WNW,292,0.0,0.0,100,0.00,,,0.00,Rainwise IP-100,2013-05-10 04:01:00,
2013-05-10 00:06:00,55.5,56.0,29.49,WNW,292,1.2,0.0,100,0.00,,,0.00,Rainwise IP-100,2013-05-10 04:06:00,
2013-05-10 00:11:00,55.4,55.0,29.49,North,360,2.1,2.1,100,0.00,,,0.00,Rainwise IP-100,2013-05-10 04:11:00,
2013-05-10 00:16:00,55.2,55.0,29.49,NNW,337,0.0,2.3,100,0.00,,,0.00,Rainwise IP-100,2013-05-10 04:16:00,
2013-05-10 00:21:00,55.0,55.0,29.49,NNW,337,0.0,1.2,100,0.00,,,0.00,Rainwise IP-100,2013-05-10 04:21:00,
2013-05-10 00:26:00,54.7,54.5,29.49,NNW,337,0.0,0.0,100,0.00,,,0.00,Rainwise IP-100,2013-05-10 04:26:00,
2013-05-10 00:31:00,54.5,54.5,29.49,NNW,337,0.0,0.0,100,0.00,,,0.00,Rainwise IP-100,2013-05-10 04:31:00,
2013-05-10 00:36:00,54.5,54.5,29.49,NNW,337,0.0,0.0,100,0.00,,,0.00,Rainwise IP-100,2013-05-10 04:36:00,
2013-05-10 00:41:00,54.4,54.5,29.49,NNW,337,0.0,0.0,100,0.00,,,0.00,Rainwise IP-100,2013-05-10 04:41:00,
2013-05-10 00:46:00,54.4,54.5,29.49,NNW,337,0.0,0.0,100,0.00,,,0.00,Rainwise IP-100,2013-05-10 04:46:00,
2013-05-10 00:51:00,54.3,54.5,29.49,NNW,337,1.2,1.2,100,0.00,,,0.00,Rainwise IP-100,2013-05-10 04:51:00,
2013-05-10 00:56:00,54.2,54.0,29.49,NNW,337,0.0,1.4,100,0.00,,,0.00,Rainwise IP-100,2013-05-10 04:56:00,
2013-05-10 01:01:00,54.0,54.0,29.49,NNW,337,0.0,0.0,100,0.00,,,0.00,Rainwise IP-100,2013-05-10 05:01:00,
2013-05-10 01:06:00,54.0,54.0,29.49,NNW,337,0.0,1.6,100,0.00,,,0.00,Rainwise IP-100,2013-05-10 05:06:00,
2013-05-10 01:12:00,54.0,54.0,29.49,NNW,337,0.0,0.0,100,0.00,,,0.00,Rainwise IP-100,2013-05-10 05:12:00,
2013-05-10 01:17:00,54.0,54.0,29.49,NNW,337,0.0,0.0,100,0.00,,,0.00,Rainwise IP-100,2013-05-10 05:17:00,
2013-05-10 01:22:00,54.0,54.0,29.49,NNW,337,0.0,0.0,100,0.00,,,0.00,Rainwise IP-100,2013-05-10 05:22:00,
2013-05-10 01:27:00,54.0,54.0,29.49,NNW,337,0.0,0.0,100,0.00,,,0.00,Rainwise IP-100,2013-05-10 05:27:00,
2013-05-10 01:32:00,54.0,54.0,29.49,NNW,337,0.0,0.0,100,0.00,,,0.00,Rainwise IP-100,2013-05-10 05:32:00,
2013-05-10 01:37:00,54.0,54.0,29.48,NNW,337,0.0,1.4,100,0.00,,,0.00,Rainwise IP-100,2013-05-10 05:37:00,
2013-05-10 01:42:00,53.9,54.0,29.49,NNW,337,0.0,1.6,100,0.00,,,0.00,Rainwise IP-100,2013-05-10 05:42:00,
2013-05-10 01:47:00,53.8,54.0,29.49,NNW,337,3.0,3.7,100,0.00,,,0.00,Rainwise IP-100,2013-05-10 05:47:00,
2013-05-10 01:52:00,53.5,53.5,29.49,NNW,337,2.6,3.7,100,0.00,,,0.00,Rainwise IP-100,2013-05-10 05:52:00,
2013-05-10 01:57:00,53.4,53.5,29.49,WNW,292,1.2,3.0,100,0.00,,,0.00,Rainwise IP-100,2013-05-10 05:57:00,
2013-05-10 02:02:00,53.4,53.5,29.49,WNW,292,0.0,2.8,100,0.00,,,0.00,Rainwise IP-100,2013-05-10 06:02:00,
2013-05-10 02:07:00,53.3,53.5,29.49,West,270,0.0,3.3,100,0.00,,,0.00,Rainwise IP-100,2013-05-10 06:07:00,
2013-05-10 02:12:00,53.3,53.5,29.49,West,270,0.0,0.0,100,0.00,,,0.00,Rainwise IP-100,2013-05-10 06:12:00,
2013-05-10 02:17:00,53.4,53.5,29.49,West,270,0.0,0.0,100,0.00,,,0.00,Rainwise IP-100,2013-05-10 06:17:00,
2013-05-10 02:23:00,53.4,53.5,29.49,West,270,0.0,0.0,100,0.00,,,0.00,Rainwise IP-100,2013-05-10 06:23:00,
2013-05-10 02:28:00,53.5,53.5,29.49,West,270,0.0,1.2,100,0.00,,,0.00,Rainwise IP-100,2013-05-10 06:28:00,
2013-05-10 02:33:00,53.6,53.5,29.49,West,270,0.0,0.0,100,0.00,,,0.00,Rainwise IP-100,2013-05-10 06:33:00,
2013-05-10 02:38:00,53.6,53.5,29.49,West,270,0.0,0.0,100,0.00,,,0.00,Rainwise IP-100,2013-05-10 06:38:00,
2013-05-10 02:43:00,53.6,53.5,29.49,West,270,0.0,0.0,100,0.00,,,0.00,Rainwise IP-100,2013-05-10 06:43:00,
2013-05-10 02:48:00,53.6,53.5,29.49,NNW,337,1.4,2.1,100,0.00,,,0.00,Rainwise IP-100,2013-05-10 06:48:00,
2013-05-10 02:53:00,53.5,53.5,29.49,NNW,337,1.4,2.1,100,0.00,,,0.00,Rainwise IP-100,2013-05-10 06:53:00,
2013-05-10 02:58:00,53.3,53.5,29.49,NNW,337,2.3,3.0,100,0.00,,,0.00,Rainwise IP-100,2013-05-10 06:58:00,
2013-05-10 03:03:00,53.2,53.0,29.50,NNW,337,0.0,2.3,100,0.00,,,0.00,Rainwise IP-100,2013-05-10 07:03:00,
2013-05-10 03:08:00,53.1,53.0,29.50,NNW,337,1.6,1.6,100,0.00,,,0.00,Rainwise IP-100,2013-05-10 07:08:00,
2013-05-10 03:13:00,53.1,53.0,29.50,NNW,337,0.0,2.1,100,0.00,,,0.00,Rainwise IP-100,2013-05-10 07:13:00,
2013-05-10 03:18:00,53.1,53.0,29.50,NNW,337,1.6,2.1,100,0.00,,,0.00,Rainwise IP-100,2013-05-10 07:18:00,
2013-05-10 03:23:00,53.1,53.0,29.50,NNW,337,1.6,2.3,100,0.00,,,0.00,Rainwise IP-100,2013-05-10 07:23:00,
2013-05-10 03:28:00,53.0,53.0,29.50,NNW,337,1.9,1.9,100,0.00,,,0.00,Rainwise IP-100,2013-05-10 07:28:00,
2013-05-10 03:33:00,53.1,53.0,29.50,NNW,337,0.0,2.1,100,0.00,,,0.00,Rainwise IP-100,2013-05-10 07:33:00,
2013-05-10 03:39:00,53.1,53.0,29.51,WSW,247,1.2,0.0,100,0.00,,,0.00,Rainwise IP-100,2013-05-10 07:39:00,
2013-05-10 03:44:00,53.1,53.0,29.50,WSW,247,1.9,2.1,100,0.00,,,0.00,Rainwise IP-100,2013-05-10 07:44:00,
2013-05-10 03:49:00,53.2,53.0,29.51,SSW,202,1.6,3.0,100,0.00,,,0.00,Rainwise IP-100,2013-05-10 07:49:00,
2013-05-10 03:54:00,53.3,53.5,29.50,SSW,202,2.1,2.8,100,0.00,,,0.00,Rainwise IP-100,2013-05-10 07:54:00,
2013-05-10 03:59:00,53.3,53.5,29.50,WSW,247,2.1,3.3,100,0.00,,,0.00,Rainwise IP-100,2013-05-10 07:59:00,
2013-05-10 04:04:00,53.2,53.0,29.50,WSW,247,2.8,2.8,100,0.00,,,0.00,Rainwise IP-100,2013-05-10 08:04:00,
2013-05-10 04:09:00,53.1,53.0,29.50,WSW,247,1.9,3.3,100,0.00,,,0.00,Rainwise IP-100,2013-05-10 08:09:00,
2013-05-10 04:14:00,53.1,53.0,29.50,WSW,247,1.4,2.1,100,0.00,,,0.00,Rainwise IP-100,2013-05-10 08:14:00,
2013-05-10 04:16:00,53.1,53.0,29.50,SSW,202,1.2,1.9,100,0.00,,,0.00,Rainwise IP-100,2013-05-10 08:16:00,
2013-05-10 04:21:00,53.1,53.0,29.50,SSW,202,1.2,2.3,100,0.00,,,0.00,Rainwise IP-100,2013-05-10 08:21:00,
2013-05-10 04:26:00,53.2,53.0,29.51,SSW,202,1.4,2.1,100,0.00,,,0.00,Rainwise IP-100,2013-05-10 08:26:00,
2013-05-10 04:31:00,53.3,53.5,29.51,SSW,202,1.4,2.1,100,0.00,,,0.00,Rainwise IP-100,2013-05-10 08:31:00,
2013-05-10 04:36:00,53.4,53.5,29.51,SSW,202,1.4,1.6,100,0.00,,,0.00,Rainwise IP-100,2013-05-10 08:36:00,
2013-05-10 04:41:00,53.4,53.5,29.51,SSW,202,0.0,2.1,100,0.00,,,0.00,Rainwise IP-100,2013-05-10 08:41:00,
2013-05-10 04:47:00,53.4,53.5,29.51,South,180,1.6,2.3,100,0.00,,,0.00,Rainwise IP-100,2013-05-10 08:47:00,
2013-05-10 04:52:00,53.4,53.5,29.51,SSW,202,2.1,2.6,100,0.00,,,0.00,Rainwise IP-100,2013-05-10 08:52:00,
2013-05-10 04:57:00,53.4,53.5,29.51,SSE,157,3.3,4.2,100,0.00,,,0.00,Rainwise IP-100,2013-05-10 08:57:00,
2013-05-10 05:02:00,53.3,53.5,29.51,SSW,202,2.6,3.7,100,0.00,,,0.00,Rainwise IP-100,2013-05-10 09:02:00,
2013-05-10 05:07:00,53.3,53.5,29.51,SSE,157,2.6,3.7,100,0.00,,,0.00,Rainwise IP-100,2013-05-10 09:07:00,
2013-05-10 05:12:00,53.3,53.5,29.51,SSW,202,0.0,3.0,100,0.00,,,0.00,Rainwise IP-100,2013-05-10 09:12:00,
2013-05-10 05:17:00,53.4,53.5,29.52,SSW,202,0.0,1.2,100,0.00,,,0.00,Rainwise IP-100,2013-05-10 09:17:00,
2013-05-10 05:22:00,53.3,53.5,29.52,South,180,1.2,1.6,100,0.00,,,0.00,Rainwise IP-100,2013-05-10 09:22:00,
2013-05-10 05:27:00,53.3,53.5,29.52,South,180,0.0,1.6,100,0.00,,,0.00,Rainwise IP-100,2013-05-10 09:27:00,
2013-05-10 05:32:00,53.4,53.5,29.52,South,180,0.0,0.0,100,0.00,,,0.00,Rainwise IP-100,2013-05-10 09:32:00,
2013-05-10 05:37:00,53.3,53.5,29.52,South,180,0.0,0.0,100,0.00,,,0.00,Rainwise IP-100,2013-05-10 09:37:00,
2013-05-10 05:42:00,53.3,53.5,29.52,South,180,1.4,0.0,100,0.00,,,0.00,Rainwise IP-100,2013-05-10 09:42:00,
2013-05-10 05:47:00,53.4,53.5,29.53,SSW,202,3.0,3.7,100,0.00,,,0.00,Rainwise IP-100,2013-05-10 09:47:00,
2013-05-10 05:52:00,53.4,53.5,29.52,SSW,202,0.0,4.9,100,0.00,,,0.00,Rainwise IP-100,2013-05-10 09:52:00,
2013-05-10 05:57:00,53.4,53.5,29.52,SSW,202,3.0,3.0,100,0.00,,,0.00,Rainwise IP-100,2013-05-10 09:57:00,
2013-05-10 06:03:00,53.4,53.5,29.52,SSW,202,2.6,4.2,100,0.00,,,0.00,Rainwise IP-100,2013-05-10 10:03:00,
2013-05-10 06:08:00,53.4,53.5,29.52,SSW,202,3.0,5.1,100,0.00,,,0.00,Rainwise IP-100,2013-05-10 10:08:00,
2013-05-10 06:13:00,53.4,53.5,29.53,SSW,202,3.3,4.7,100,0.00,,,0.00,Rainwise IP-100,2013-05-10 10:13:00,
2013-05-10 06:18:00,53.4,53.5,29.53,SSW,202,1.9,4.2,100,0.00,,,0.00,Rainwise IP-100,2013-05-10 10:18:00,
2013-05-10 06:23:00,53.4,53.5,29.53,SSW,202,1.6,3.3,100,0.00,,,0.00,Rainwise IP-100,2013-05-10 10:23:00,
2013-05-10 06:28:00,53.3,53.5,29.53,SSW,202,1.9,5.1,100,0.00,,,0.00,Rainwise IP-100,2013-05-10 10:28:00,
2013-05-10 06:33:00,53.3,53.5,29.53,SSW,202,3.5,5.1,100,0.00,,,0.00,Rainwise IP-100,2013-05-10 10:33:00,
2013-05-10 06:38:00,53.3,53.5,29.53,SSW,202,2.6,5.4,100,0.00,,,0.00,Rainwise IP-100,2013-05-10 10:38:00,
2013-05-10 06:43:00,53.2,53.0,29.53,SSE,157,3.5,4.0,100,0.00,,,0.00,Rainwise IP-100,2013-05-10 10:43:00,
2013-05-10 06:48:00,53.2,53.0,29.53,SSE,157,2.3,4.0,100,0.00,,,0.00,Rainwise IP-100,2013-05-10 10:48:00,
2013-05-10 06:53:00,53.1,53.0,29.53,SSE,157,2.6,4.0,100,0.00,,,0.00,Rainwise IP-100,2013-05-10 10:53:00,
2013-05-10 06:58:00,53.1,53.0,29.53,SSE,157,3.5,5.6,100,0.00,,,0.00,Rainwise IP-100,2013-05-10 10:58:00,
2013-05-10 07:03:00,53.1,53.0,29.53,SSW,202,3.0,5.4,100,0.00,,,0.00,Rainwise IP-100,2013-05-10 11:03:00,
2013-05-10 07:08:00,53.1,53.0,29.53,SSE,157,3.3,5.6,100,0.00,,,0.00,Rainwise IP-100,2013-05-10 11:08:00,
2013-05-10 07:13:00,53.0,53.0,29.53,South,180,2.6,5.1,100,0.00,,,0.00,Rainwise IP-100,2013-05-10 11:13:00,
2013-05-10 07:19:00,53.1,53.0,29.54,SSE,157,2.6,4.0,100,0.00,,,0.00,Rainwise IP-100,2013-05-10 11:19:00,
2013-05-10 07:24:00,53.1,53.0,29.55,South,180,4.0,5.8,100,0.00,,,0.00,Rainwise IP-100,2013-05-10 11:24:00,
2013-05-10 07:29:00,53.1,53.0,29.55,SSW,202,2.6,4.9,100,0.00,,,0.00,Rainwise IP-100,2013-05-10 11:29:00,
2013-05-10 07:34:00,53.1,53.0,29.55,SSW,202,4.0,5.4,100,0.00,,,0.00,Rainwise IP-100,2013-05-10 11:34:00,
2013-05-10 07:39:00,53.1,53.0,29.55,South,180,0.0,4.0,100,0.00,,,0.00,Rainwise IP-100,2013-05-10 11:39:00,
2013-05-10 07:44:00,53.2,53.0,29.55,SSE,157,2.1,5.1,100,0.00,,,0.00,Rainwise IP-100,2013-05-10 11:44:00,
2013-05-10 07:49:00,53.2,53.0,29.55,SSW,202,4.7,5.6,100,0.00,,,0.00,Rainwise IP-100,2013-05-10 11:49:00,
2013-05-10 07:54:00,53.3,53.5,29.55,SSW,202,3.0,7.2,100,0.00,,,0.00,Rainwise IP-100,2013-05-10 11:54:00,
2013-05-10 07:59:00,53.5,53.5,29.56,SE,135,2.3,4.7,100,0.00,,,0.00,Rainwise IP-100,2013-05-10 11:59:00,
2013-05-10 08:04:00,53.6,53.5,29.56,SSW,202,2.6,5.6,100,0.00,,,0.00,Rainwise IP-100,2013-05-10 12:04:00,
2013-05-10 08:09:00,53.8,54.0,29.56,SSW,202,1.2,4.4,100,0.00,,,0.00,Rainwise IP-100,2013-05-10 12:09:00,
2013-05-10 08:14:00,54.2,54.0,29.55,SSE,157,2.6,3.7,100,0.00,,,0.00,Rainwise IP-100,2013-05-10 12:14:00,
2013-05-10 08:19:00,54.3,54.5,29.56,SSE,157,4.7,5.6,100,0.00,,,0.00,Rainwise IP-100,2013-05-10 12:19:00,
2013-05-10 08:24:00,54.4,54.5,29.55,SSW,202,1.4,4.7,100,0.00,,,0.00,Rainwise IP-100,2013-05-10 12:24:00,
2013-05-10 08:29:00,54.6,54.5,29.55,SSW,202,1.4,3.5,100,0.00,,,0.00,Rainwise IP-100,2013-05-10 12:29:00,
2013-05-10 08:35:00,55.0,55.0,29.55,SSW,202,4.2,4.2,100,0.00,,,0.00,Rainwise IP-100,2013-05-10 12:35:00,
2013-05-10 08:40:00,55.2,55.0,29.55,SSW,202,2.6,4.4,100,0.00,,,0.00,Rainwise IP-100,2013-05-10 12:40:00,
2013-05-10 08:45:00,55.1,55.0,29.55,SSE,157,0.0,3.5,100,0.00,,,0.00,Rainwise IP-100,2013-05-10 12:45:00,
2013-05-10 08:50:00,55.1,55.0,29.55,WSW,247,3.7,6.8,100,0.00,,,0.00,Rainwise IP-100,2013-05-10 12:50:00,
2013-05-10 08:55:00,55.1,55.0,29.55,West,270,0.0,5.6,100,0.00,,,0.00,Rainwise IP-100,2013-05-10 12:55:00,
2013-05-10 09:00:00,55.4,55.0,29.56,SSW,202,3.3,4.4,100,0.00,,,0.00,Rainwise IP-100,2013-05-10 13:00:00,
2013-05-10 09:05:00,55.5,56.0,29.56,SW,225,2.8,4.0,100,0.00,,,0.00,Rainwise IP-100,2013-05-10 13:05:00,
2013-05-10 09:10:00,55.6,56.0,29.55,SSW,202,2.6,4.7,100,0.00,,,0.00,Rainwise IP-100,2013-05-10 13:10:00,
2013-05-10 09:15:00,55.9,56.0,29.55,SSW,202,3.5,3.5,100,0.00,,,0.00,Rainwise IP-100,2013-05-10 13:15:00,
2013-05-10 09:20:00,56.3,56.5,29.55,SSW,202,1.2,4.9,100,0.00,,,0.00,Rainwise IP-100,2013-05-10 13:20:00,
2013-05-10 09:25:00,56.5,56.5,29.56,SSE,157,2.8,5.4,100,0.00,,,0.00,Rainwise IP-100,2013-05-10 13:25:00,
2013-05-10 09:30:00,56.5,56.5,29.55,WSW,247,2.3,5.1,100,0.00,,,0.00,Rainwise IP-100,2013-05-10 13:30:00,
2013-05-10 09:35:00,56.9,57.0,29.55,SSW,202,1.6,3.5,100,0.00,,,0.00,Rainwise IP-100,2013-05-10 13:35:00,
2013-05-10 09:40:00,57.6,57.5,29.55,SSW,202,2.8,4.7,100,0.00,,,0.00,Rainwise IP-100,2013-05-10 13:40:00,
2013-05-10 09:45:00,57.9,58.0,29.56,South,180,4.9,7.0,100,0.00,,,0.00,Rainwise IP-100,2013-05-10 13:45:00,
2013-05-10 09:51:00,58.4,58.0,29.56,SSW,202,2.1,6.3,100,0.00,,,0.00,Rainwise IP-100,2013-05-10 13:51:00,
2013-05-10 09:56:00,59.6,59.5,29.55,SSE,157,1.2,3.5,100,0.00,,,0.00,Rainwise IP-100,2013-05-10 13:56:00,
2013-05-10 10:01:00,60.9,61.0,29.54,SE,135,0.0,4.9,100,0.00,,,0.00,Rainwise IP-100,2013-05-10 14:01:00,
2013-05-10 10:06:00,61.1,61.0,29.54,ENE,67,2.8,5.6,100,0.00,,,0.00,Rainwise IP-100,2013-05-10 14:06:00,
2013-05-10 10:11:00,60.6,60.0,29.54,ENE,67,3.5,5.4,99,0.00,,,0.00,Rainwise IP-100,2013-05-10 14:11:00,
2013-05-10 10:16:00,60.8,60.5,29.54,ENE,67,3.5,6.1,99,0.00,,,0.00,Rainwise IP-100,2013-05-10 14:16:00,
2013-05-10 10:21:00,61.4,61.0,29.54,ENE,67,1.4,4.4,98,0.00,,,0.00,Rainwise IP-100,2013-05-10 14:21:00,
2013-05-10 10:26:00,62.7,62.0,29.54,NE,45,2.8,5.1,98,0.00,,,0.00,Rainwise IP-100,2013-05-10 14:26:00,
2013-05-10 10:31:00,63.7,63.0,29.54,SSE,157,4.0,4.4,99,0.00,,,0.00,Rainwise IP-100,2013-05-10 14:31:00,
2013-05-10 10:36:00,64.5,64.0,29.53,ENE,67,1.6,5.4,98,0.00,,,0.00,Rainwise IP-100,2013-05-10 14:36:00,
2013-05-10 10:41:00,65.4,65.0,29.53,ESE,112,3.0,4.4,98,0.00,,,0.00,Rainwise IP-100,2013-05-10 14:41:00,
2013-05-10 10:46:00,65.7,64.5,29.53,NE,45,0.0,4.7,97,0.00,,,0.00,Rainwise IP-100,2013-05-10 14:46:00,
2013-05-10 10:51:00,66.8,66.3,29.53,SSE,157,2.6,4.9,98,0.00,,,0.00,Rainwise IP-100,2013-05-10 14:51:00,
2013-05-10 10:56:00,68.1,67.5,29.53,SSE,157,1.4,4.0,99,0.00,,,0.00,Rainwise IP-100,2013-05-10 14:56:00,
2013-05-10 11:01:00,68.3,68.0,29.53,SSW,202,3.5,3.5,99,0.00,,,0.00,Rainwise IP-100,2013-05-10 15:01:00,
2013-05-10 11:07:00,68.9,68.0,29.53,NNW,337,0.0,5.6,97,0.00,,,0.00,Rainwise IP-100,2013-05-10 15:07:00,
2013-05-10 11:12:00,68.4,66.7,29.53,ENE,67,3.0,7.2,94,0.00,,,0.00,Rainwise IP-100,2013-05-10 15:12:00,
2013-05-10 11:17:00,67.2,63.5,29.53,ENE,67,5.1,6.3,88,0.00,,,0.00,Rainwise IP-100,2013-05-10 15:17:00,
2013-05-10 11:22:00,67.1,62.0,29.53,NE,45,2.8,5.8,84,0.00,,,0.00,Rainwise IP-100,2013-05-10 15:22:00,
2013-05-10 11:27:00,67.6,62.0,29.53,SSE,157,5.6,5.6,83,0.00,,,0.00,Rainwise IP-100,2013-05-10 15:27:00,
2013-05-10 11:32:00,68.8,64.0,29.53,SSW,202,5.8,7.5,84,0.00,,,0.00,Rainwise IP-100,2013-05-10 15:32:00,
2013-05-10 11:37:00,69.8,64.0,29.53,SSE,157,3.0,7.5,82,0.00,,,0.00,Rainwise IP-100,2013-05-10 15:37:00,
2013-05-10 11:42:00,70.5,64.5,29.52,SSW,202,4.9,6.3,81,0.00,,,0.00,Rainwise IP-100,2013-05-10 15:42:00,
2013-05-10 11:47:00,70.6,64.0,29.52,SSE,157,2.3,7.0,80,0.00,,,0.00,Rainwise IP-100,2013-05-10 15:47:00,
2013-05-10 11:52:00,70.5,63.5,29.52,ENE,67,5.4,7.2,78,0.00,,,0.00,Rainwise IP-100,2013-05-10 15:52:00,
2013-05-10 11:57:00,70.0,61.5,29.52,ENE,67,5.1,6.3,74,0.00,,,0.00,Rainwise IP-100,2013-05-10 15:57:00,
2013-05-10 12:02:00,69.9,59.5,29.52,NNW,337,0.0,6.8,69,0.00,,,0.00,Rainwise IP-100,2013-05-10 16:02:00,
2013-05-10 12:07:00,70.9,59.5,29.51,ENE,67,4.7,5.4,67,0.00,,,0.00,Rainwise IP-100,2013-05-10 16:07:00,
2013-05-10 12:12:00,71.4,59.0,29.51,North,360,7.9,10.3,65,0.00,,,0.00,Rainwise IP-100,2013-05-10 16:12:00,
2013-05-10 12:17:00,72.1,59.0,29.51,ENE,67,0.0,9.6,63,0.00,,,0.00,Rainwise IP-100,2013-05-10 16:17:00,
2013-05-10 12:23:00,72.5,59.0,29.51,SSW,202,4.0,6.1,62,0.00,,,0.00,Rainwise IP-100,2013-05-10 16:23:00,
2013-05-10 12:28:00,72.7,58.0,29.50,South,180,3.3,4.2,61,0.00,,,0.00,Rainwise IP-100,2013-05-10 16:28:00,
2013-05-10 12:33:00,72.6,58.0,29.50,ESE,112,6.1,6.3,60,0.00,,,0.00,Rainwise IP-100,2013-05-10 16:33:00,
2013-05-10 12:38:00,72.4,57.5,29.50,ESE,112,0.0,6.3,60,0.00,,,0.00,Rainwise IP-100,2013-05-10 16:38:00,
2013-05-10 12:43:00,72.8,58.0,29.49,ESE,112,2.1,5.6,60,0.00,,,0.00,Rainwise IP-100,2013-05-10 16:43:00,
2013-05-10 12:48:00,72.4,57.0,29.49,East,90,3.7,8.2,59,0.00,,,0.00,Rainwise IP-100,2013-05-10 16:48:00,
2013-05-10 12:53:00,72.3,56.5,29.49,NE,45,2.6,9.3,58,0.00,,,0.00,Rainwise IP-100,2013-05-10 16:53:00,
2013-05-10 12:58:00,72.5,56.0,29.49,East,90,2.6,6.8,56,0.00,,,0.00,Rainwise IP-100,2013-05-10 16:58:00,
2013-05-10 13:00:00,72.5,56.0,29.49,NNW,337,4.4,6.3,56,0.00,,,0.00,Rainwise IP-100,2013-05-10 17:00:00,
2013-05-10 13:05:00,73.6,57.0,29.49,ENE,67,2.6,4.7,56,0.00,,,0.00,Rainwise IP-100,2013-05-10 17:05:00,
2013-05-10 13:10:00,75.1,57.5,29.49,ENE,67,4.4,5.6,55,0.00,,,0.00,Rainwise IP-100,2013-05-10 17:10:00,
2013-05-10 13:15:00,74.0,56.5,29.49,ENE,67,6.1,6.5,54,0.00,,,0.00,Rainwise IP-100,2013-05-10 17:15:00,
2013-05-10 13:20:00,73.6,56.0,29.49,NNW,337,6.1,7.5,54,0.00,,,0.00,Rainwise IP-100,2013-05-10 17:20:00,
2013-05-10 13:25:00,74.5,56.5,29.49,NNE,22,4.4,9.1,53,0.00,,,0.00,Rainwise IP-100,2013-05-10 17:25:00,
2013-05-10 13:30:00,73.1,55.0,29.48,ENE,67,10.0,13.5,54,0.00,,,0.00,Rainwise IP-100,2013-05-10 17:30:00,
2013-05-10 13:36:00,70.7,56.0,29.49,ENE,67,11.0,13.3,60,0.00,,,0.00,Rainwise IP-100,2013-05-10 17:36:00,
2013-05-10 13:41:00,69.8,57.0,29.49,ENE,67,11.7,12.8,64,0.00,,,0.00,Rainwise IP-100,2013-05-10 17:41:00,
2013-05-10 13:46:00,69.6,57.0,29.49,ENE,67,5.6,11.9,65,0.00,,,0.00,Rainwise IP-100,2013-05-10 17:46:00,
2013-05-10 13:51:00,69.7,57.0,29.49,ENE,67,7.0,9.6,65,0.00,,,0.00,Rainwise IP-100,2013-05-10 17:51:00,
2013-05-10 13:56:00,70.0,57.5,29.49,ENE,67,3.7,8.2,65,0.00,,,0.00,Rainwise IP-100,2013-05-10 17:56:00,
2013-05-10 14:01:00,70.2,57.5,29.49,NE,45,4.0,7.7,65,0.00,,,0.00,Rainwise IP-100,2013-05-10 18:01:00,
2013-05-10 14:06:00,70.5,58.0,29.49,NE,45,1.6,6.3,65,0.00,,,0.00,Rainwise IP-100,2013-05-10 18:06:00,
2013-05-10 14:11:00,70.7,57.5,29.49,ENE,67,4.9,6.8,64,0.00,,,0.00,Rainwise IP-100,2013-05-10 18:11:00,
2013-05-10 14:16:00,70.8,57.5,29.48,NE,45,4.9,6.3,63,0.00,,,0.00,Rainwise IP-100,2013-05-10 18:16:00,
2013-05-10 14:21:00,71.1,57.0,29.49,ENE,67,3.3,5.1,62,0.00,,,0.00,Rainwise IP-100,2013-05-10 18:21:00,
2013-05-10 14:26:00,71.4,57.5,29.49,NE,45,4.0,5.8,62,0.00,,,0.00,Rainwise IP-100,2013-05-10 18:26:00,
2013-05-10 14:31:00,71.4,57.0,29.49,ENE,67,1.6,5.6,61,0.00,,,0.00,Rainwise IP-100,2013-05-10 18:31:00,
2013-05-10 14:36:00,71.6,57.0,29.49,ENE,67,0.0,3.5,60,0.00,,,0.00,Rainwise IP-100,2013-05-10 18:36:00,
2013-05-10 14:41:00,72.0,57.0,29.49,ENE,67,0.0,2.8,60,0.00,,,0.00,Rainwise IP-100,2013-05-10 18:41:00,
2013-05-10 14:46:00,72.0,57.0,29.49,NE,45,4.4,5.4,59,0.00,,,0.00,Rainwise IP-100,2013-05-10 18:46:00,
2013-05-10 14:52:00,72.1,57.0,29.49,NNE,22,0.0,5.1,59,0.00,,,0.00,Rainwise IP-100,2013-05-10 18:52:00,
2013-05-10 14:57:00,72.6,57.5,29.49,North,360,4.7,11.0,59,0.00,,,0.00,Rainwise IP-100,2013-05-10 18:57:00,
2013-05-10 15:02:00,72.7,57.5,29.49,ENE,67,5.1,7.0,59,0.00,,,0.00,Rainwise IP-100,2013-05-10 19:02:00,
2013-05-10 15:07:00,72.1,57.0,29.49,NNE,22,5.4,9.6,60,0.00,,,0.00,Rainwise IP-100,2013-05-10 19:07:00,
2013-05-10 15:12:00,71.7,57.0,29.49,ENE,67,4.9,8.2,60,0.00,,,0.00,Rainwise IP-100,2013-05-10 19:12:00,
2013-05-10 15:17:00,71.9,57.0,29.48,NNE,22,2.1,5.1,60,0.00,,,0.00,Rainwise IP-100,2013-05-10 19:17:00,
2013-05-10 15:22:00,72.0,57.0,29.48,ENE,67,5.6,7.5,60,0.00,,,0.00,Rainwise IP-100,2013-05-10 19:22:00,
2013-05-10 15:27:00,71.8,56.5,29.48,ENE,67,2.8,8.2,59,0.00,,,0.00,Rainwise IP-100,2013-05-10 19:27:00,
2013-05-10 15:32:00,71.9,57.0,29.48,North,360,5.1,8.6,59,0.00,,,0.00,Rainwise IP-100,2013-05-10 19:32:00,
2013-05-10 15:37:00,72.0,57.0,29.47,ENE,67,7.5,8.4,59,0.00,,,0.00,Rainwise IP-100,2013-05-10 19:37:00,
2013-05-10 15:42:00,71.8,56.5,29.48,ENE,67,6.8,9.1,59,0.00,,,0.00,Rainwise IP-100,2013-05-10 19:42:00,
2013-05-10 15:47:00,71.6,56.5,29.48,NNE,22,4.7,8.4,59,0.00,,,0.00,Rainwise IP-100,2013-05-10 19:47:00,
2013-05-10 15:52:00,72.0,57.0,29.47,NNE,22,4.0,8.6,59,0.00,,,0.00,Rainwise IP-100,2013-05-10 19:52:00,
2013-05-10 15:57:00,72.4,57.5,29.48,ENE,67,4.9,6.1,60,0.00,,,0.00,Rainwise IP-100,2013-05-10 19:57:00,
2013-05-10 16:02:00,72.3,57.5,29.48,NNE,22,4.2,6.3,60,0.00,,,0.00,Rainwise IP-100,2013-05-10 20:02:00,
2013-05-10 16:08:00,72.5,57.5,29.48,ENE,67,3.5,4.4,59,0.00,,,0.00,Rainwise IP-100,2013-05-10 20:08:00,
2013-05-10 16:13:00,72.5,57.5,29.48,ENE,67,4.7,6.1,59,0.00,,,0.00,Rainwise IP-100,2013-05-10 20:13:00,
2013-05-10 16:18:00,71.9,57.0,29.48,ENE,67,1.9,5.4,59,0.00,,,0.00,Rainwise IP-100,2013-05-10 20:18:00,
2013-05-10 16:23:00,71.8,56.5,29.48,ENE,67,1.6,2.6,59,0.00,,,0.00,Rainwise IP-100,2013-05-10 20:23:00,
2013-05-10 16:28:00,72.0,57.0,29.48,ENE,67,1.2,3.0,60,0.00,,,0.00,Rainwise IP-100,2013-05-10 20:28:00,
2013-05-10 16:33:00,72.3,57.5,29.48,ESE,112,0.0,1.2,60,0.00,,,0.00,Rainwise IP-100,2013-05-10 20:33:00,
2013-05-10 16:38:00,72.9,58.0,29.48,SSW,202,1.6,3.3,60,0.00,,,0.00,Rainwise IP-100,2013-05-10 20:38:00,
2013-05-10 16:43:00,73.1,58.0,29.48,SW,225,2.1,3.5,60,0.00,,,0.00,Rainwise IP-100,2013-05-10 20:43:00,
2013-05-10 16:48:00,72.9,59.0,29.48,SSW,202,3.7,4.7,61,0.00,,,0.00,Rainwise IP-100,2013-05-10 20:48:00,
2013-05-10 16:53:00,72.4,58.0,29.48,SSW,202,4.2,6.3,61,0.00,,,0.00,Rainwise IP-100,2013-05-10 20:53:00,
2013-05-10 16:58:00,71.9,58.0,29.47,SSW,202,3.3,4.9,62,0.00,,,0.00,Rainwise IP-100,2013-05-10 20:58:00,
2013-05-10 17:03:00,72.0,59.0,29.47,SSW,202,3.3,5.1,63,0.00,,,0.00,Rainwise IP-100,2013-05-10 21:03:00,
2013-05-10 17:08:00,72.0,58.0,29.47,SSW,202,1.2,4.9,62,0.00,,,0.00,Rainwise IP-100,2013-05-10 21:08:00,
2013-05-10 17:13:00,72.0,58.0,29.48,SSW,202,2.8,3.7,62,0.00,,,0.00,Rainwise IP-100,2013-05-10 21:13:00,
2013-05-10 17:18:00,72.1,58.0,29.47,SSW,202,3.0,4.0,62,0.00,,,0.00,Rainwise IP-100,2013-05-10 21:18:00,
2013-05-10 17:24:00,72.3,59.0,29.48,SSW,202,2.1,4.7,62,0.00,,,0.00,Rainwise IP-100,2013-05-10 21:24:00,
2013-05-10 17:29:00,72.8,59.0,29.47,SSE,157,0.0,2.8,62,0.00,,,0.00,Rainwise IP-100,2013-05-10 21:29:00,
2013-05-10 17:34:00,73.3,59.5,29.47,WSW,247,0.0,2.8,62,0.00,,,0.00,Rainwise IP-100,2013-05-10 21:34:00,
2013-05-10 17:39:00,73.4,59.0,29.47,SSW,202,1.4,3.3,60,0.00,,,0.00,Rainwise IP-100,2013-05-10 21:39:00,
2013-05-10 17:44:00,73.4,58.0,29.47,SSW,202,1.9,2.8,59,0.00,,,0.00,Rainwise IP-100,2013-05-10 21:44:00,
2013-05-10 17:49:00,73.4,57.5,29.46,SSW,202,0.0,2.8,58,0.00,,,0.00,Rainwise IP-100,2013-05-10 21:49:00,
2013-05-10 17:54:00,73.4,58.0,29.46,SSE,157,0.0,2.3,59,0.00,,,0.00,Rainwise IP-100,2013-05-10 21:54:00,
2013-05-10 17:58:00,73.3,58.0,29.46,SSE,157,0.0,1.4,59,0.00,,,0.00,Rainwise IP-100,2013-05-10 21:58:00,
2013-05-10 18:03:00,73.2,58.0,29.47,SSE,157,0.0,1.6,59,0.00,,,0.00,Rainwise IP-100,2013-05-10 22:03:00,
2013-05-10 18:08:00,73.0,57.5,29.46,SSE,157,0.0,1.4,59,0.00,,,0.00,Rainwise IP-100,2013-05-10 22:08:00,
2013-05-10 18:13:00,72.8,57.5,29.46,SSE,157,0.0,0.0,59,0.00,,,0.00,Rainwise IP-100,2013-05-10 22:13:00,
2013-05-10 18:18:00,72.5,58.0,29.46,SSE,157,0.0,1.2,60,0.00,,,0.00,Rainwise IP-100,2013-05-10 22:18:00,
2013-05-10 18:23:00,72.0,57.0,29.46,SSE,157,0.0,0.0,59,0.00,,,0.00,Rainwise IP-100,2013-05-10 22:23:00,
2013-05-10 18:28:00,71.5,56.5,29.46,SSE,157,0.0,0.0,59,0.00,,,0.00,Rainwise IP-100,2013-05-10 22:28:00,
2013-05-10 18:33:00,71.0,56.5,29.46,SSE,157,0.0,0.0,60,0.00,,,0.00,Rainwise IP-100,2013-05-10 22:33:00,
2013-05-10 18:38:00,70.4,57.0,29.46,SSE,157,0.0,0.0,63,0.00,,,0.00,Rainwise IP-100,2013-05-10 22:38:00,
2013-05-10 18:43:00,69.8,57.0,29.46,SSE,157,0.0,0.0,65,0.00,,,0.00,Rainwise IP-100,2013-05-10 22:43:00,
2013-05-10 18:48:00,69.6,58.0,29.46,SSE,157,0.0,1.4,67,0.00,,,0.00,Rainwise IP-100,2013-05-10 22:48:00,
2013-05-10 18:53:00,69.4,59.5,29.46,SSE,157,0.0,0.0,71,0.00,,,0.00,Rainwise IP-100,2013-05-10 22:53:00,
2013-05-10 18:58:00,68.8,60.5,29.46,SSE,157,0.0,0.0,74,0.00,,,0.00,Rainwise IP-100,2013-05-10 22:58:00,
2013-05-10 19:03:00,68.4,60.5,29.46,SSE,157,0.0,1.2,75,0.00,,,0.00,Rainwise IP-100,2013-05-10 23:03:00,
2013-05-10 19:08:00,68.1,60.0,29.47,SSE,157,0.0,0.0,76,0.00,,,0.00,Rainwise IP-100,2013-05-10 23:08:00,
2013-05-10 19:14:00,67.7,60.0,29.47,SSE,157,0.0,0.0,77,0.00,,,0.00,Rainwise IP-100,2013-05-10 23:14:00,
2013-05-10 19:19:00,67.6,60.0,29.47,SSE,157,0.0,0.0,77,0.00,,,0.00,Rainwise IP-100,2013-05-10 23:19:00,
2013-05-10 19:24:00,67.4,60.5,29.46,SSE,157,0.0,0.0,78,0.00,,,0.00,Rainwise IP-100,2013-05-10 23:24:00,
2013-05-10 19:29:00,67.1,60.5,29.47,SSE,157,0.0,0.0,79,0.00,,,0.00,Rainwise IP-100,2013-05-10 23:29:00,
2013-05-10 19:34:00,66.8,60.5,29.47,SSE,157,0.0,0.0,80,0.00,,,0.00,Rainwise IP-100,2013-05-10 23:34:00,
2013-05-10 19:39:00,66.4,60.5,29.46,SSE,157,0.0,0.0,82,0.00,,,0.00,Rainwise IP-100,2013-05-10 23:39:00,
2013-05-10 19:44:00,66.0,60.5,29.46,SSE,157,0.0,0.0,83,0.00,,,0.00,Rainwise IP-100,2013-05-10 23:44:00,
2013-05-10 19:49:00,65.6,60.5,29.47,SSE,157,0.0,0.0,84,0.00,,,0.00,Rainwise IP-100,2013-05-10 23:49:00,
2013-05-10 19:54:00,65.2,60.5,29.47,WNW,292,0.0,0.0,85,0.00,,,0.00,Rainwise IP-100,2013-05-10 23:54:00,
2013-05-10 19:59:00,64.9,60.5,29.47,WNW,292,0.0,1.4,85,0.00,,,0.00,Rainwise IP-100,2013-05-10 23:59:00,
2013-05-10 20:04:00,64.6,60.0,29.47,WNW,292,0.0,0.0,85,0.00,,,0.00,Rainwise IP-100,2013-05-11 00:04:00,
2013-05-10 20:10:00,64.2,60.0,29.47,WNW,292,0.0,0.0,86,0.00,,,0.00,Rainwise IP-100,2013-05-11 00:10:00,
2013-05-10 20:15:00,63.9,60.0,29.47,WNW,292,0.0,0.0,86,0.00,,,0.00,Rainwise IP-100,2013-05-11 00:15:00,
2013-05-10 20:20:00,63.5,59.5,29.47,WNW,292,0.0,0.0,87,0.00,,,0.00,Rainwise IP-100,2013-05-11 00:20:00,
2013-05-10 20:25:00,63.1,59.0,29.47,WNW,292,0.0,1.2,87,0.00,,,0.00,Rainwise IP-100,2013-05-11 00:25:00,
2013-05-10 20:30:00,62.8,59.5,29.47,WNW,292,0.0,0.0,88,0.00,,,0.00,Rainwise IP-100,2013-05-11 00:30:00,
2013-05-10 20:35:00,62.6,59.0,29.46,WNW,292,0.0,1.4,88,0.00,,,0.00,Rainwise IP-100,2013-05-11 00:35:00,
2013-05-10 20:40:00,62.4,59.5,29.46,WNW,292,0.0,1.4,89,0.00,,,0.00,Rainwise IP-100,2013-05-11 00:40:00,
2013-05-10 20:45:00,62.3,59.5,29.46,WNW,292,0.0,2.1,90,0.00,,,0.00,Rainwise IP-100,2013-05-11 00:45:00,
2013-05-10 20:50:00,62.1,59.0,29.46,WNW,292,0.0,1.9,90,0.00,,,0.00,Rainwise IP-100,2013-05-11 00:50:00,
2013-05-10 20:55:00,62.0,59.5,29.46,NNW,337,1.6,3.5,91,0.00,,,0.00,Rainwise IP-100,2013-05-11 00:55:00,
2013-05-10 21:00:00,61.8,59.5,29.46,ENE,67,0.0,4.4,91,0.00,,,0.00,Rainwise IP-100,2013-05-11 01:00:00,
2013-05-10 21:05:00,61.6,59.0,29.46,NNW,337,1.6,4.2,91,0.00,,,0.00,Rainwise IP-100,2013-05-11 01:05:00,
2013-05-10 21:10:00,61.4,59.0,29.46,NW,315,0.0,2.1,91,0.00,,,0.00,Rainwise IP-100,2013-05-11 01:10:00,
2013-05-10 21:15:00,61.2,58.0,29.47,SSW,202,0.0,0.0,91,0.00,,,0.00,Rainwise IP-100,2013-05-11 01:15:00,
2013-05-10 21:21:00,61.0,59.0,29.47,SSW,202,0.0,1.6,92,0.00,,,0.00,Rainwise IP-100,2013-05-11 01:21:00,
2013-05-10 21:26:00,60.8,59.0,29.47,SSW,202,1.6,1.9,92,0.00,,,0.00,Rainwise IP-100,2013-05-11 01:26:00,
2013-05-10 21:31:00,60.5,58.0,29.46,SSW,202,0.0,2.1,92,0.00,,,0.00,Rainwise IP-100,2013-05-11 01:31:00,
2013-05-10 21:36:00,60.3,58.0,29.46,SSW,202,1.2,1.4,92,0.00,,,0.00,Rainwise IP-100,2013-05-11 01:36:00,
2013-05-10 21:41:00,60.1,57.5,29.46,WSW,247,1.4,1.6,93,0.00,,,0.00,Rainwise IP-100,2013-05-11 01:41:00,
2013-05-10 21:46:00,60.1,57.5,29.46,WSW,247,0.0,1.6,93,0.00,,,0.00,Rainwise IP-100,2013-05-11 01:46:00,
2013-05-10 21:51:00,60.0,58.0,29.46,WSW,247,0.0,1.4,94,0.00,,,0.00,Rainwise IP-100,2013-05-11 01:51:00,
2013-05-10 21:56:00,59.9,58.0,29.46,WSW,247,0.0,1.4,94,0.00,,,0.00,Rainwise IP-100,2013-05-11 01:56:00,
2013-05-10 22:01:00,59.7,57.5,29.47,WSW,247,0.0,0.0,94,0.00,,,0.00,Rainwise IP-100,2013-05-11 02:01:00,
2013-05-10 22:06:00,59.5,57.5,29.46,NW,315,0.0,2.6,94,0.00,,,0.00,Rainwise IP-100,2013-05-11 02:06:00,
2013-05-10 22:11:00,59.4,57.5,29.46,NNW,337,0.0,3.0,94,0.00,,,0.00,Rainwise IP-100,2013-05-11 02:11:00,
2013-05-10 22:16:00,59.3,57.5,29.46,NNW,337,1.4,2.6,94,0.00,,,0.00,Rainwise IP-100,2013-05-11 02:16:00,
2013-05-10 22:21:00,59.2,57.5,29.46,NNW,337,0.0,2.1,95,0.00,,,0.00,Rainwise IP-100,2013-05-11 02:21:00,
2013-05-10 22:26:00,59.2,57.5,29.45,NNW,337,0.0,2.6,95,0.00,,,0.00,Rainwise IP-100,2013-05-11 02:26:00,
2013-05-10 22:31:00,59.0,57.5,29.45,NW,315,0.0,3.3,95,0.00,,,0.00,Rainwise IP-100,2013-05-11 02:31:00,
2013-05-10 22:37:00,59.0,57.5,29.45,NW,315,0.0,2.6,95,0.00,,,0.00,Rainwise IP-100,2013-05-11 02:37:00,
2013-05-10 22:42:00,58.9,57.5,29.45,NW,315,0.0,0.0,95,0.00,,,0.00,Rainwise IP-100,2013-05-11 02:42:00,
2013-05-10 22:47:00,58.8,57.5,29.45,NW,315,0.0,0.0,95,0.00,,,0.00,Rainwise IP-100,2013-05-11 02:47:00,
2013-05-10 22:52:00,58.6,57.5,29.45,NW,315,0.0,0.0,95,0.00,,,0.00,Rainwise IP-100,2013-05-11 02:52:00,
2013-05-10 22:57:00,58.5,57.5,29.45,NW,315,0.0,1.2,95,0.00,,,0.00,Rainwise IP-100,2013-05-11 02:57:00,
2013-05-10 23:02:00,58.4,57.0,29.44,NW,315,0.0,0.0,96,0.00,,,0.00,Rainwise IP-100,2013-05-11 03:02:00,
2013-05-10 23:07:00,58.3,57.0,29.45,NW,315,0.0,0.0,96,0.00,,,0.00,Rainwise IP-100,2013-05-11 03:07:00,
2013-05-10 23:12:00,58.2,57.0,29.44,WNW,292,0.0,0.0,96,0.00,,,0.00,Rainwise IP-100,2013-05-11 03:12:00,
2013-05-10 23:17:00,58.2,57.0,29.44,WNW,292,1.2,1.6,96,0.00,,,0.00,Rainwise IP-100,2013-05-11 03:17:00,
2013-05-10 23:22:00,58.2,57.0,29.45,WNW,292,0.0,3.0,96,0.00,,,0.00,Rainwise IP-100,2013-05-11 03:22:00,
2013-05-10 23:27:00,58.1,57.0,29.45,WNW,292,0.0,0.0,96,0.00,,,0.00,Rainwise IP-100,2013-05-11 03:27:00,
2013-05-10 23:32:00,58.1,57.0,29.44,WNW,292,0.0,0.0,96,0.00,,,0.00,Rainwise IP-100,2013-05-11 03:32:00,
2013-05-10 23:37:00,58.1,57.0,29.44,WNW,292,0.0,0.0,96,0.00,,,0.00,Rainwise IP-100,2013-05-11 03:37:00,
2013-05-10 23:42:00,58.0,57.5,29.44,WNW,292,0.0,0.0,97,0.00,,,0.00,Rainwise IP-100,2013-05-11 03:42:00,
2013-05-10 23:47:00,57.9,57.5,29.44,WNW,292,0.0,0.0,97,0.00,,,0.00,Rainwise IP-100,2013-05-11 03:47:00,
2013-05-10 23:53:00,57.9,57.5,29.44,WNW,292,0.0,0.0,97,0.00,,,0.00,Rainwise IP-100,2013-05-11 03:53:00,
2013-05-10 23:58:00,57.9,57.5,29.44,WNW,292,0.0,0.0,97,0.00,,,0.00,Rainwise IP-100,2013-05-11 03:58:00,